contact:dominique.lefevre@mio.osupytheas.fr, maurice.libes@osupytheas.fr, didier.mallarino@osupytheas.fr
Project:EMSO http://www.emso-fr.org/EMSO-France
Depth: 2436.0 m
Title:EMSO Ligure Ouest : Data MII capteur AQUADOPP
Date,Latitude,Longitude,X_East,Y_North,Z_Up,Amplitude_X,Amplitude_Y,Amplitude_Z,Batterie,SoundSpeed,Heading,Pitch,Roll,Pressure,TIS,Speed,Direction
, degrees North, degrees East, m.s-1, m.s-1,m.s-1, 1, 1, 1, Volt, m.s-1, degree, degree, degree, dbar, degree_C, m.s-1, degree
2021-01-09T00:04:03,42.805,6.029,-0.03,-0.014,-0.011,102.0,104.0,100.0,13.3,1505.3,325.6,-0.7,1.8,2470.443,13.32,0.033,245.0
2021-01-09T00:07:03,42.805,6.029,0.007,0.0,0.011,101.0,104.0,100.0,13.4,1505.3,326.2,-0.7,1.8,2470.379,13.33,0.007,90.0
2021-01-09T00:10:03,42.805,6.029,0.006,0.009,0.017,102.0,104.0,100.0,13.4,1505.4,324.2,-0.7,1.8,2470.384,13.34,0.01,33.7
2021-01-09T00:13:03,42.805,6.029,0.016,-0.012,0.001,100.0,104.0,101.0,13.4,1505.4,326.0,-0.7,1.8,2470.358,13.34,0.02,126.9
2021-01-09T00:16:03,42.805,6.029,-0.01,-0.004,0.008,102.0,104.0,100.0,13.4,1505.4,327.4,-0.7,1.8,2470.386,13.34,0.01,248.2
2021-01-09T00:19:03,42.805,6.029,0.01,0.008,0.032,102.0,103.0,99.0,13.4,1505.4,328.1,-0.7,1.8,2470.344,13.34,0.012,51.3
2021-01-09T00:22:03,42.805,6.029,-0.012,0.015,-0.005,102.0,104.0,99.0,13.4,1505.4,325.1,-0.7,1.8,2470.378,13.34,0.019,321.3
2021-01-09T00:25:03,42.805,6.029,0.001,-0.017,0.023,101.0,104.0,100.0,13.4,1505.4,326.2,-0.7,1.8,2470.343,13.34,0.017,176.6
2021-01-09T00:28:03,42.805,6.029,-0.006,-0.018,0.014,101.0,104.0,99.0,13.4,1505.4,327.6,-0.7,1.8,2470.364,13.34,0.018,198.4
2021-01-09T00:31:03,42.805,6.029,0.018,-0.008,0.008,102.0,105.0,99.0,13.4,1505.4,324.4,-0.7,1.9,2470.362,13.34,0.019,114.0
2021-01-09T00:34:03,42.805,6.029,-0.011,0.01,0.025,100.0,105.0,100.0,13.4,1505.4,322.7,-0.7,1.8,2470.345,13.35,0.014,312.3
2021-01-09T00:37:03,42.805,6.029,0.011,-0.007,0.002,101.0,104.0,100.0,13.4,1505.4,324.9,-0.7,1.8,2470.366,13.35,0.013,122.5
2021-01-09T00:40:03,42.805,6.029,0.005,-0.005,0.014,102.0,105.0,99.0,13.4,1505.4,326.2,-0.6,1.8,2470.398,13.35,0.007,135.0
2021-01-09T00:43:03,42.805,6.029,-0.004,-0.004,0.031,102.0,105.0,99.0,13.4,1505.4,324.1,-0.7,1.8,2470.344,13.35,0.005,225.0
2021-01-09T00:46:03,42.805,6.029,-0.048,0.004,0.011,102.0,106.0,98.0,13.3,1505.4,326.5,-0.7,1.9,2470.367,13.35,0.048,274.8
2021-01-09T00:49:03,42.805,6.029,-0.025,-0.017,-0.04,100.0,106.0,100.0,13.4,1505.4,323.6,-0.7,1.8,2470.374,13.35,0.03,235.8
2021-01-09T00:52:03,42.805,6.029,-0.021,-0.002,0.001,100.0,103.0,100.0,13.4,1505.4,325.1,-0.7,1.8,2470.377,13.35,0.021,264.6
2021-01-09T00:55:03,42.805,6.029,0.003,0.005,0.019,101.0,105.0,100.0,13.4,1505.4,328.0,-0.7,1.8,2470.381,13.35,0.005,31.0
2021-01-09T00:58:03,42.805,6.029,-0.013,-0.011,0.016,101.0,105.0,101.0,13.4,1505.4,324.4,-0.7,1.9,2470.372,13.35,0.017,229.8
2021-01-09T01:04:03,42.805,6.029,-0.013,0.0,-0.007,103.0,105.0,100.0,13.3,1505.3,324.8,-0.8,1.8,2470.426,13.33,0.013,270.0
2021-01-09T01:07:03,42.805,6.029,0.001,-0.004,-0.012,101.0,104.0,100.0,13.3,1505.3,326.1,-0.7,1.8,2470.434,13.33,0.004,166.0
2021-01-09T01:10:03,42.805,6.029,-0.023,-0.004,-0.02,101.0,104.0,99.0,13.4,1505.4,325.9,-0.7,1.8,2470.423,13.34,0.023,260.1
2021-01-09T01:13:03,42.805,6.029,-0.016,-0.003,0.009,101.0,104.0,99.0,13.3,1505.4,326.5,-0.7,1.8,2470.411,13.34,0.016,259.4
2021-01-09T01:16:03,42.805,6.029,-0.032,0.01,-0.003,101.0,104.0,100.0,13.3,1505.4,325.9,-0.7,1.8,2470.399,13.34,0.033,287.4
2021-01-09T01:19:03,42.805,6.029,-0.027,0.003,0.0,100.0,105.0,99.0,13.3,1505.4,325.4,-0.7,1.8,2470.413,13.34,0.027,276.3
2021-01-09T01:22:03,42.805,6.029,0.005,-0.008,0.015,101.0,105.0,101.0,13.4,1505.4,324.8,-0.7,1.8,2470.409,13.34,0.009,148.0
2021-01-09T01:25:03,42.805,6.029,-0.003,-0.013,0.053,102.0,104.0,99.0,13.3,1505.4,325.7,-0.7,1.8,2470.413,13.34,0.013,193.0
2021-01-09T01:28:03,42.805,6.029,-0.022,-0.016,0.016,101.0,104.0,99.0,13.4,1505.4,327.2,-0.7,1.8,2470.434,13.34,0.027,234.0
2021-01-09T01:34:03,42.805,6.029,-0.02,0.01,0.009,101.0,104.0,100.0,13.4,1505.3,325.5,-0.7,1.8,2470.439,13.33,0.022,296.6
2021-01-09T01:37:03,42.805,6.029,0.01,0.008,0.031,101.0,104.0,100.0,13.4,1505.3,325.6,-0.7,1.8,2470.433,13.33,0.012,51.3
2021-01-09T01:40:03,42.805,6.029,-0.012,0.009,0.015,102.0,105.0,100.0,13.4,1505.3,324.9,-0.7,1.9,2470.435,13.33,0.015,306.9
2021-01-09T01:43:03,42.805,6.029,-0.032,-0.001,-0.012,102.0,105.0,99.0,13.4,1505.4,322.7,-0.7,1.8,2470.46,13.34,0.032,268.2
2021-01-09T01:46:03,42.805,6.029,-0.01,0.001,0.035,101.0,104.0,100.0,13.4,1505.4,327.5,-0.7,1.9,2470.491,13.34,0.01,275.7
2021-01-09T01:49:03,42.805,6.029,-0.015,-0.014,-0.017,103.0,105.0,99.0,13.3,1505.4,325.2,-0.7,1.8,2470.43,13.34,0.02,227.0
2021-01-09T01:52:03,42.805,6.029,0.0,-0.006,-0.005,102.0,105.0,99.0,13.4,1505.4,324.3,-0.7,1.8,2470.449,13.34,0.006,180.0
2021-01-09T01:55:03,42.805,6.029,0.016,-0.007,-0.009,102.0,105.0,100.0,13.3,1505.4,325.3,-0.7,1.8,2470.438,13.34,0.017,113.6
2021-01-09T01:58:03,42.805,6.029,-0.034,-0.001,-0.003,103.0,105.0,100.0,13.3,1505.4,328.0,-0.7,1.8,2470.421,13.34,0.034,268.3
2021-01-09T02:04:03,42.805,6.029,-0.012,0.01,0.054,101.0,105.0,100.0,13.4,1505.3,323.5,-0.7,1.8,2470.487,13.32,0.015,309.8
2021-01-09T02:07:03,42.805,6.029,0.022,-0.005,0.038,102.0,105.0,100.0,13.4,1505.3,324.5,-0.7,1.9,2470.456,13.33,0.022,102.8
2021-01-09T02:10:03,42.805,6.029,-0.001,-0.011,-0.004,102.0,104.0,99.0,13.4,1505.3,328.1,-0.7,1.9,2470.437,13.33,0.011,185.2
2021-01-09T02:13:03,42.805,6.029,-0.001,-0.015,0.028,101.0,105.0,100.0,13.4,1505.4,323.1,-0.7,1.8,2470.448,13.34,0.015,183.8
2021-01-09T02:16:03,42.805,6.029,0.025,0.004,0.0,102.0,105.0,100.0,13.4,1505.4,325.9,-0.7,1.8,2470.419,13.34,0.025,80.9
2021-01-09T02:19:03,42.805,6.029,0.035,0.009,0.022,102.0,104.0,100.0,13.4,1505.4,324.9,-0.7,1.8,2470.452,13.34,0.036,75.6
2021-01-09T02:22:03,42.805,6.029,0.005,-0.005,0.033,102.0,104.0,99.0,13.4,1505.4,324.4,-0.7,1.8,2470.467,13.34,0.007,135.0
2021-01-09T02:25:03,42.805,6.029,0.018,0.0,0.036,102.0,105.0,99.0,13.4,1505.4,326.8,-0.7,1.8,2470.43,13.34,0.018,90.0
2021-01-09T02:28:03,42.805,6.029,0.021,0.01,0.049,101.0,105.0,99.0,13.4,1505.4,327.0,-0.7,1.8,2470.458,13.34,0.023,64.5
2021-01-09T02:31:03,42.805,6.029,0.006,0.016,0.005,102.0,105.0,100.0,13.4,1505.4,324.6,-0.7,1.8,2470.41,13.34,0.017,20.6
2021-01-09T02:34:03,42.805,6.029,-0.001,0.005,0.016,101.0,105.0,100.0,13.4,1505.4,324.6,-0.7,1.8,2470.425,13.34,0.005,348.7
2021-01-09T02:37:03,42.805,6.029,0.013,0.002,0.022,101.0,105.0,99.0,13.4,1505.4,324.7,-0.7,1.8,2470.415,13.34,0.013,81.3
2021-01-09T02:40:03,42.805,6.029,0.003,-0.005,-0.01,101.0,106.0,100.0,13.4,1505.4,327.7,-0.7,1.8,2470.428,13.34,0.005,149.0
2021-01-09T02:43:03,42.805,6.029,0.0,-0.002,0.02,102.0,105.0,99.0,13.4,1505.4,325.9,-0.7,1.8,2470.436,13.34,0.002,180.0
2021-01-09T02:46:03,42.805,6.029,0.002,0.001,0.026,101.0,105.0,99.0,13.4,1505.4,324.9,-0.7,1.8,2470.444,13.34,0.002,63.4
2021-01-09T02:49:03,42.805,6.029,0.013,0.004,0.007,101.0,106.0,99.0,13.4,1505.4,324.6,-0.7,1.8,2470.426,13.34,0.013,72.9
2021-01-09T02:52:03,42.805,6.029,0.001,0.011,0.003,100.0,105.0,101.0,13.4,1505.4,327.2,-0.7,1.8,2470.455,13.34,0.011,5.2
2021-01-09T02:55:03,42.805,6.029,0.023,-0.013,0.046,100.0,106.0,100.0,13.3,1505.4,327.2,-0.7,1.8,2470.433,13.34,0.026,119.5
2021-01-09T02:58:03,42.805,6.029,0.008,0.0,0.041,101.0,106.0,100.0,13.4,1505.4,327.8,-0.7,1.8,2470.447,13.34,0.008,90.0
2021-01-09T03:04:03,42.805,6.029,0.026,0.004,0.041,101.0,105.0,100.0,13.3,1505.3,324.0,-0.8,1.8,2470.472,13.32,0.026,81.3
2021-01-09T03:07:03,42.805,6.029,0.039,-0.007,0.0,102.0,105.0,98.0,13.4,1505.3,325.1,-0.7,1.8,2470.496,13.33,0.039,100.2
2021-01-09T03:10:03,42.805,6.029,-0.013,0.011,0.02,101.0,106.0,99.0,13.4,1505.4,323.6,-0.7,1.8,2470.462,13.34,0.017,310.2
2021-01-09T03:13:03,42.805,6.029,-0.022,0.004,0.015,101.0,106.0,99.0,13.3,1505.4,324.2,-0.7,1.8,2470.469,13.34,0.022,280.3
2021-01-09T03:16:03,42.805,6.029,-0.005,-0.005,0.021,102.0,106.0,100.0,13.4,1505.4,325.5,-0.7,1.8,2470.498,13.34,0.007,225.0
2021-01-09T03:19:03,42.805,6.029,0.012,0.001,0.003,102.0,105.0,100.0,13.4,1505.4,327.6,-0.7,1.8,2470.472,13.34,0.012,85.2
2021-01-09T03:22:03,42.805,6.029,0.01,-0.013,-0.004,101.0,106.0,100.0,13.3,1505.4,325.9,-0.7,1.8,2470.477,13.34,0.016,142.4
2021-01-09T03:25:03,42.805,6.029,0.004,0.001,0.013,101.0,105.0,99.0,13.3,1505.4,325.8,-0.7,1.8,2470.457,13.34,0.004,76.0
2021-01-09T03:31:03,42.805,6.029,-0.007,0.002,0.015,102.0,106.0,99.0,13.4,1505.3,324.1,-0.7,1.8,2470.487,13.33,0.007,285.9
2021-01-09T03:34:03,42.805,6.029,0.006,0.001,0.014,101.0,106.0,100.0,13.3,1505.3,325.6,-0.7,1.8,2470.486,13.33,0.006,80.5
2021-01-09T03:37:03,42.805,6.029,0.029,0.009,0.055,103.0,107.0,99.0,13.4,1505.4,325.1,-0.7,1.8,2470.497,13.34,0.03,72.8
2021-01-09T03:40:03,42.805,6.029,0.019,0.003,0.004,102.0,106.0,101.0,13.4,1505.4,326.0,-0.7,1.8,2470.464,13.34,0.019,81.0
2021-01-09T03:43:03,42.805,6.029,-0.002,-0.009,0.006,102.0,106.0,100.0,13.4,1505.4,326.3,-0.7,1.8,2470.516,13.34,0.009,192.5
2021-01-09T03:46:03,42.805,6.029,0.033,0.027,0.029,102.0,105.0,101.0,13.3,1505.4,324.9,-0.7,1.8,2470.472,13.34,0.042,50.7
2021-01-09T03:49:03,42.805,6.029,0.007,-0.011,0.004,101.0,107.0,100.0,13.4,1505.4,326.8,-0.7,1.8,2470.495,13.34,0.013,147.5
2021-01-09T03:52:03,42.805,6.029,-0.018,0.001,0.002,104.0,105.0,100.0,13.4,1505.4,325.9,-0.7,1.9,2470.476,13.34,0.018,273.2
2021-01-09T03:55:03,42.805,6.029,-0.004,0.009,0.0,103.0,106.0,99.0,13.4,1505.4,326.5,-0.7,1.8,2470.49,13.34,0.009,336.0
2021-01-09T03:58:03,42.805,6.029,0.017,0.013,0.042,101.0,107.0,100.0,13.3,1505.4,323.5,-0.7,1.8,2470.497,13.34,0.021,52.6
2021-01-09T04:04:03,42.805,6.029,0.003,0.011,0.029,101.0,106.0,99.0,13.3,1505.3,324.6,-0.7,1.8,2470.496,13.33,0.011,15.3
2021-01-09T04:07:03,42.805,6.029,0.032,-0.002,0.03,101.0,106.0,100.0,13.4,1505.3,326.4,-0.7,1.8,2470.485,13.33,0.032,93.6
2021-01-09T04:10:03,42.805,6.029,0.021,-0.002,0.014,100.0,107.0,101.0,13.4,1505.3,327.0,-0.7,1.8,2470.504,13.33,0.021,95.4
2021-01-09T04:13:03,42.805,6.029,0.006,-0.02,0.001,102.0,106.0,99.0,13.3,1505.3,324.1,-0.7,1.9,2470.513,13.33,0.02,163.3
2021-01-09T04:16:03,42.805,6.029,0.014,-0.01,0.036,103.0,106.0,100.0,13.4,1505.3,326.3,-0.7,1.8,2470.506,13.33,0.017,125.5
2021-01-09T04:19:03,42.805,6.029,0.041,-0.009,0.08,101.0,107.0,99.0,13.3,1505.3,326.7,-0.7,1.9,2470.487,13.33,0.041,102.4
2021-01-09T04:22:03,42.805,6.029,0.035,0.002,0.037,102.0,106.0,101.0,13.4,1505.3,326.7,-0.7,1.9,2470.507,13.33,0.035,86.7
2021-01-09T04:25:03,42.805,6.029,0.037,0.007,0.075,102.0,107.0,99.0,13.4,1505.3,323.9,-0.7,1.8,2470.473,13.33,0.037,79.3
2021-01-09T04:28:03,42.805,6.029,0.029,-0.017,0.025,101.0,107.0,99.0,13.3,1505.3,326.1,-0.7,1.8,2470.496,13.33,0.033,120.4
2021-01-09T04:31:03,42.805,6.029,0.006,-0.003,0.006,102.0,106.0,100.0,13.4,1505.3,326.8,-0.7,1.8,2470.45,13.33,0.006,116.6
2021-01-09T04:34:03,42.805,6.029,0.03,0.001,0.045,103.0,106.0,100.0,13.4,1505.3,324.8,-0.7,1.9,2470.48,13.33,0.03,88.1
2021-01-09T04:37:03,42.805,6.029,-0.005,0.0,0.021,101.0,107.0,101.0,13.4,1505.3,326.1,-0.7,1.8,2470.466,13.33,0.005,270.0
2021-01-09T04:40:03,42.805,6.029,-0.01,-0.012,0.007,103.0,106.0,101.0,13.4,1505.3,327.4,-0.7,1.8,2470.495,13.33,0.015,219.8
2021-01-09T04:43:03,42.805,6.029,0.011,-0.012,0.042,102.0,107.0,99.0,13.3,1505.3,324.4,-0.7,1.8,2470.447,13.33,0.016,137.5
2021-01-09T04:46:03,42.805,6.029,0.002,-0.001,-0.004,101.0,107.0,100.0,13.3,1505.3,326.3,-0.7,1.8,2470.476,13.33,0.002,116.6
2021-01-09T04:49:03,42.805,6.029,-0.007,0.008,0.003,100.0,107.0,100.0,13.4,1505.3,324.5,-0.7,1.8,2470.462,13.33,0.01,318.8
2021-01-09T04:52:03,42.805,6.029,-0.001,-0.016,-0.011,101.0,107.0,100.0,13.3,1505.3,326.1,-0.7,1.8,2470.471,13.33,0.016,183.6
2021-01-09T04:55:03,42.805,6.029,-0.022,-0.017,-0.013,102.0,106.0,100.0,13.4,1505.3,324.1,-0.7,1.8,2470.444,13.33,0.027,232.3
2021-01-09T04:58:03,42.805,6.029,-0.027,-0.016,-0.016,103.0,106.0,98.0,13.4,1505.3,327.6,-0.7,1.8,2470.442,13.33,0.031,239.3
2021-01-09T05:04:03,42.805,6.029,0.024,-0.015,0.01,100.0,106.0,100.0,13.4,1505.3,327.5,-0.8,1.8,2470.523,13.31,0.028,122.0
2021-01-09T05:07:03,42.805,6.029,0.018,-0.014,0.009,101.0,106.0,99.0,13.4,1505.3,323.2,-0.7,1.8,2470.513,13.31,0.022,127.9
2021-01-09T05:10:03,42.805,6.029,0.007,0.0,0.029,100.0,106.0,99.0,13.4,1505.3,324.0,-0.7,1.8,2470.486,13.32,0.007,90.0
2021-01-09T05:13:03,42.805,6.029,-0.021,-0.031,-0.008,101.0,107.0,99.0,13.4,1505.3,326.4,-0.7,1.8,2470.527,13.32,0.037,214.1
2021-01-09T05:16:03,42.805,6.029,0.026,-0.005,0.046,101.0,107.0,97.0,13.3,1505.3,326.6,-0.7,1.8,2470.503,13.32,0.026,100.9
2021-01-09T05:19:03,42.805,6.029,-0.041,-0.021,-0.055,100.0,106.0,100.0,13.3,1505.3,322.9,-0.7,1.8,2470.488,13.33,0.046,242.9
2021-01-09T05:22:03,42.805,6.029,-0.062,-0.02,-0.065,100.0,105.0,99.0,13.4,1505.3,323.6,-0.7,1.8,2470.516,13.33,0.065,252.1
2021-01-09T05:25:03,42.805,6.029,-0.021,-0.035,-0.014,101.0,106.0,99.0,13.4,1505.3,322.9,-0.7,1.8,2470.491,13.33,0.04,211.0
2021-01-09T05:28:03,42.805,6.029,-0.073,-0.005,-0.069,101.0,105.0,99.0,13.4,1505.3,327.6,-0.7,1.8,2470.445,13.33,0.073,266.1
2021-01-09T05:31:03,42.805,6.029,-0.068,-0.019,-0.089,102.0,104.0,98.0,13.3,1505.3,328.5,-0.7,1.9,2470.494,13.33,0.07,254.4
2021-01-09T05:34:03,42.805,6.029,-0.049,-0.029,-0.06,103.0,106.0,98.0,13.4,1505.3,327.0,-0.7,1.8,2470.474,13.33,0.056,239.4
2021-01-09T05:37:03,42.805,6.029,-0.05,-0.021,-0.055,102.0,105.0,98.0,13.4,1505.3,324.7,-0.7,1.8,2470.451,13.33,0.054,247.2
2021-01-09T05:40:03,42.805,6.029,-0.07,-0.006,-0.044,101.0,106.0,99.0,13.3,1505.3,325.9,-0.7,1.8,2470.478,13.33,0.07,265.1
2021-01-09T05:43:03,42.805,6.029,-0.012,-0.009,-0.018,101.0,106.0,100.0,13.3,1505.3,327.4,-0.7,1.8,2470.486,13.33,0.015,233.1
2021-01-09T05:46:03,42.805,6.029,-0.044,-0.01,-0.031,102.0,106.0,99.0,13.4,1505.3,326.0,-0.7,1.8,2470.477,13.33,0.045,257.2
2021-01-09T05:49:03,42.805,6.029,-0.042,-0.022,-0.044,102.0,105.0,100.0,13.4,1505.3,327.2,-0.7,1.8,2470.483,13.33,0.047,242.4
2021-01-09T05:52:03,42.805,6.029,-0.022,-0.001,-0.032,102.0,106.0,100.0,13.3,1505.3,326.4,-0.7,1.8,2470.481,13.33,0.022,267.4
2021-01-09T05:55:03,42.805,6.029,-0.056,-0.019,-0.051,100.0,105.0,100.0,13.4,1505.3,326.0,-0.7,1.9,2470.503,13.33,0.059,251.3
2021-01-09T05:58:03,42.805,6.029,-0.032,-0.011,-0.026,102.0,106.0,100.0,13.4,1505.3,323.7,-0.7,1.8,2470.488,13.33,0.033,251.0
2021-01-09T06:04:03,42.805,6.029,-0.043,-0.002,-0.035,100.0,107.0,100.0,13.4,1505.3,324.2,-0.7,1.8,2470.515,13.31,0.043,267.3
2021-01-09T06:07:03,42.805,6.029,0.027,-0.025,0.004,102.0,107.0,100.0,13.3,1505.3,326.2,-0.7,1.8,2470.459,13.31,0.036,132.8
2021-01-09T06:10:03,42.805,6.029,-0.017,-0.012,0.012,101.0,106.0,100.0,13.3,1505.3,326.7,-0.7,1.8,2470.504,13.32,0.02,234.8
2021-01-09T06:13:03,42.805,6.029,-0.029,-0.002,-0.014,101.0,109.0,99.0,13.4,1505.3,326.3,-0.7,1.8,2470.519,13.32,0.029,266.1
2021-01-09T06:16:03,42.805,6.029,0.024,-0.002,0.019,102.0,107.0,101.0,13.3,1505.3,326.9,-0.7,1.8,2470.537,13.33,0.024,94.8
2021-01-09T06:19:03,42.805,6.029,0.013,-0.009,0.002,101.0,107.0,99.0,13.4,1505.3,323.8,-0.7,1.9,2470.487,13.33,0.015,124.7
2021-01-09T06:22:03,42.805,6.029,-0.02,-0.02,-0.008,101.0,107.0,101.0,13.3,1505.3,322.8,-0.7,1.8,2470.458,13.33,0.028,225.0
2021-01-09T06:25:03,42.805,6.029,0.015,-0.012,0.015,103.0,106.0,98.0,13.4,1505.3,325.7,-0.7,1.8,2470.479,13.33,0.019,128.7
2021-01-09T06:28:03,42.805,6.029,0.011,-0.02,0.027,102.0,107.0,100.0,13.4,1505.3,324.7,-0.7,1.8,2470.474,13.33,0.022,151.2
2021-01-09T06:31:03,42.805,6.029,0.051,-0.013,0.004,100.0,108.0,101.0,13.4,1505.3,322.8,-0.7,1.8,2470.494,13.33,0.052,104.3
2021-01-09T06:34:03,42.805,6.029,0.005,0.002,0.057,103.0,109.0,98.0,13.4,1505.3,326.4,-0.7,1.8,2470.455,13.33,0.005,68.2
2021-01-09T06:37:03,42.805,6.029,0.076,0.011,0.064,101.0,108.0,99.0,13.4,1505.3,323.2,-0.7,1.8,2470.46,13.33,0.076,81.8
2021-01-09T06:40:03,42.805,6.029,0.03,-0.011,0.052,100.0,106.0,101.0,13.4,1505.3,328.1,-0.7,1.8,2470.464,13.33,0.031,110.1
2021-01-09T06:46:03,42.805,6.029,0.021,-0.034,0.018,102.0,107.0,99.0,13.4,1505.3,326.3,-0.8,1.8,2470.495,13.31,0.039,148.3
2021-01-09T06:49:03,42.805,6.029,0.038,-0.006,0.06,101.0,108.0,99.0,13.4,1505.3,327.9,-0.7,1.8,2470.479,13.31,0.038,99.0
2021-01-09T06:52:03,42.805,6.029,0.032,-0.028,0.055,101.0,108.0,99.0,13.4,1505.3,324.0,-0.7,1.8,2470.498,13.32,0.042,131.2
2021-01-09T06:55:03,42.805,6.029,0.023,-0.028,0.0,100.0,109.0,100.0,13.4,1505.3,323.0,-0.7,1.8,2470.521,13.32,0.036,140.6
2021-01-09T06:58:03,42.805,6.029,0.0,-0.014,-0.002,101.0,108.0,100.0,13.4,1505.3,326.0,-0.7,1.8,2470.504,13.33,0.014,180.0
2021-01-09T07:04:03,42.805,6.029,0.015,0.007,-0.001,102.0,107.0,100.0,13.3,1505.3,326.5,-0.7,1.8,2470.5,13.31,0.016,65.0
2021-01-09T07:07:03,42.805,6.029,0.042,0.026,0.057,101.0,108.0,100.0,13.3,1505.3,327.6,-0.7,1.8,2470.483,13.31,0.049,58.2
2021-01-09T07:10:03,42.805,6.029,0.047,0.002,0.048,100.0,110.0,99.0,13.4,1505.3,323.2,-0.7,1.8,2470.498,13.32,0.047,87.6
2021-01-09T07:13:03,42.805,6.029,0.042,-0.02,0.044,103.0,108.0,98.0,13.3,1505.3,326.5,-0.7,1.8,2470.464,13.32,0.046,115.5
2021-01-09T07:16:03,42.805,6.029,0.056,-0.001,0.033,100.0,107.0,100.0,13.3,1505.3,327.7,-0.7,1.8,2470.488,13.32,0.056,91.0
2021-01-09T07:19:03,42.805,6.029,0.066,-0.015,0.064,101.0,107.0,100.0,13.4,1505.3,323.3,-0.7,1.8,2470.484,13.33,0.067,102.8
2021-01-09T07:22:03,42.805,6.029,0.055,-0.004,0.043,101.0,106.0,101.0,13.4,1505.3,323.2,-0.7,1.8,2470.469,13.33,0.055,94.2
2021-01-09T07:25:03,42.805,6.029,0.029,0.006,0.033,102.0,108.0,100.0,13.4,1505.3,323.3,-0.7,1.8,2470.46,13.33,0.029,78.3
2021-01-09T07:28:03,42.805,6.029,0.03,-0.015,0.065,102.0,109.0,97.0,13.4,1505.3,323.1,-0.7,1.8,2470.468,13.33,0.033,116.6
2021-01-09T07:31:03,42.805,6.029,0.014,-0.023,0.018,102.0,108.0,99.0,13.4,1505.3,323.3,-0.7,1.8,2470.462,13.33,0.026,148.7
2021-01-09T07:34:03,42.805,6.029,0.009,-0.038,-0.031,101.0,107.0,100.0,13.4,1505.3,323.2,-0.7,1.8,2470.45,13.33,0.039,166.7
2021-01-09T07:37:03,42.805,6.029,0.034,-0.01,0.025,102.0,108.0,99.0,13.4,1505.3,327.2,-0.7,1.8,2470.437,13.33,0.035,106.4
2021-01-09T07:40:03,42.805,6.029,0.033,-0.018,0.02,100.0,107.0,100.0,13.3,1505.3,325.8,-0.7,1.8,2470.473,13.33,0.037,118.6
2021-01-09T07:43:03,42.805,6.029,0.048,-0.018,0.036,101.0,109.0,99.0,13.4,1505.3,324.0,-0.7,1.8,2470.473,13.33,0.051,110.6
2021-01-09T07:46:03,42.805,6.029,0.016,-0.005,0.028,102.0,107.0,100.0,13.4,1505.3,323.4,-0.7,1.8,2470.484,13.33,0.016,107.4
2021-01-09T07:49:03,42.805,6.029,0.021,-0.012,0.021,101.0,106.0,99.0,13.4,1505.3,328.4,-0.7,1.8,2470.451,13.33,0.024,119.7
2021-01-09T07:52:03,42.805,6.029,0.051,-0.016,0.036,102.0,107.0,100.0,13.4,1505.3,326.1,-0.7,1.8,2470.413,13.33,0.053,107.4
2021-01-09T07:55:03,42.805,6.029,0.058,-0.026,0.041,101.0,107.0,99.0,13.4,1505.3,326.3,-0.7,1.8,2470.426,13.33,0.063,114.1
2021-01-09T07:58:03,42.805,6.029,0.036,-0.027,0.06,101.0,108.0,99.0,13.4,1505.3,326.5,-0.7,1.9,2470.475,13.33,0.045,126.9
2021-01-09T08:04:03,42.805,6.029,0.061,-0.005,0.068,100.0,109.0,99.0,13.4,1505.3,326.4,-0.7,1.8,2470.5,13.31,0.061,94.7
2021-01-09T08:07:03,42.805,6.029,0.06,-0.016,0.078,102.0,107.0,99.0,13.4,1505.3,326.9,-0.7,1.8,2470.464,13.32,0.062,104.9
2021-01-09T08:10:03,42.805,6.029,0.069,-0.014,0.045,102.0,108.0,100.0,13.4,1505.3,326.3,-0.7,1.8,2470.444,13.32,0.07,101.5
2021-01-09T08:13:03,42.805,6.029,0.051,-0.009,0.07,104.0,109.0,98.0,13.4,1505.3,325.8,-0.7,1.8,2470.472,13.33,0.051,100.0
2021-01-09T08:16:03,42.805,6.029,0.047,-0.017,0.034,101.0,106.0,101.0,13.3,1505.3,325.9,-0.7,1.8,2470.439,13.33,0.049,109.9
2021-01-09T08:19:03,42.805,6.029,0.038,-0.011,0.051,102.0,106.0,100.0,13.4,1505.3,325.1,-0.7,1.8,2470.445,13.33,0.039,106.1
2021-01-09T08:22:03,42.805,6.029,0.022,-0.01,0.022,101.0,107.0,100.0,13.3,1505.3,326.7,-0.7,1.9,2470.486,13.33,0.024,114.4
2021-01-09T08:25:03,42.805,6.029,0.082,-0.007,0.046,101.0,107.0,100.0,13.4,1505.3,324.7,-0.7,1.8,2470.43,13.33,0.082,94.9
2021-01-09T08:28:03,42.805,6.029,0.049,-0.006,0.046,101.0,107.0,99.0,13.4,1505.3,324.4,-0.7,1.8,2470.456,13.33,0.049,97.0
2021-01-09T08:31:03,42.805,6.029,0.072,-0.01,0.108,102.0,106.0,100.0,13.4,1505.3,326.5,-0.7,1.8,2470.443,13.33,0.072,97.9
2021-01-09T08:34:03,42.805,6.029,0.047,-0.032,0.01,101.0,108.0,98.0,13.4,1505.3,328.5,-0.7,1.8,2470.411,13.33,0.056,124.2
2021-01-09T08:37:03,42.805,6.029,0.032,-0.024,-0.005,101.0,106.0,100.0,13.4,1505.3,328.3,-0.7,1.8,2470.456,13.33,0.04,126.9
2021-01-09T08:40:03,42.805,6.029,0.019,-0.034,-0.011,98.0,107.0,101.0,13.4,1505.3,326.9,-0.7,1.8,2470.418,13.33,0.038,150.8
2021-01-09T08:43:03,42.805,6.029,0.025,-0.017,0.032,101.0,107.0,100.0,13.3,1505.3,325.7,-0.7,1.8,2470.395,13.33,0.03,124.2
2021-01-09T08:46:03,42.805,6.029,-0.01,-0.027,0.004,102.0,106.0,98.0,13.3,1505.3,328.1,-0.7,1.8,2470.451,13.33,0.028,200.3
2021-01-09T08:49:03,42.805,6.029,0.015,-0.025,0.014,102.0,106.0,99.0,13.4,1505.3,326.7,-0.7,1.8,2470.433,13.33,0.029,149.0
2021-01-09T08:52:03,42.805,6.029,0.004,-0.016,0.008,101.0,106.0,99.0,13.4,1505.3,325.7,-0.7,1.8,2470.398,13.33,0.016,166.0
2021-01-09T08:55:03,42.805,6.029,0.006,-0.009,0.026,101.0,105.0,100.0,13.4,1505.3,323.5,-0.7,1.8,2470.422,13.33,0.01,146.3
2021-01-09T08:58:03,42.805,6.029,0.03,-0.03,0.029,100.0,106.0,99.0,13.4,1505.3,326.3,-0.7,1.8,2470.424,13.33,0.042,135.0
2021-01-09T09:04:03,42.805,6.029,0.048,-0.054,-0.011,101.0,107.0,99.0,13.4,1505.3,326.0,-0.7,1.8,2470.443,13.31,0.072,138.4
2021-01-09T09:07:03,42.805,6.029,-0.007,0.0,0.004,100.0,107.0,100.0,13.3,1505.3,326.9,-0.7,1.8,2470.479,13.32,0.007,270.0
2021-01-09T09:10:03,42.805,6.029,0.038,-0.018,0.066,101.0,106.0,100.0,13.4,1505.3,326.5,-0.7,1.8,2470.457,13.32,0.042,115.3
2021-01-09T09:13:03,42.805,6.029,0.018,-0.016,-0.003,101.0,106.0,99.0,13.4,1505.3,326.3,-0.7,1.8,2470.424,13.32,0.024,131.6
2021-01-09T09:16:03,42.805,6.029,0.03,0.015,0.038,101.0,107.0,100.0,13.3,1505.3,325.4,-0.7,1.9,2470.421,13.33,0.033,63.4
2021-01-09T09:19:03,42.805,6.029,0.017,-0.021,0.012,98.0,108.0,100.0,13.3,1505.3,324.0,-0.7,1.8,2470.435,13.33,0.027,141.0
2021-01-09T09:22:03,42.805,6.029,0.01,-0.016,-0.001,101.0,106.0,99.0,13.4,1505.3,326.1,-0.7,1.8,2470.451,13.33,0.018,148.0
2021-01-09T09:25:03,42.805,6.029,0.051,0.003,0.055,102.0,107.0,99.0,13.4,1505.3,326.0,-0.7,1.8,2470.429,13.33,0.051,86.6
2021-01-09T09:28:03,42.805,6.029,0.036,-0.013,0.052,104.0,105.0,99.0,13.4,1505.3,328.2,-0.7,1.8,2470.392,13.33,0.038,109.9
2021-01-09T09:31:03,42.805,6.029,0.066,-0.006,0.016,101.0,106.0,99.0,13.4,1505.3,323.0,-0.7,1.8,2470.414,13.33,0.066,95.2
2021-01-09T09:34:03,42.805,6.029,0.056,-0.015,0.059,99.0,108.0,100.0,13.3,1505.3,325.6,-0.7,1.8,2470.435,13.33,0.057,105.0
2021-01-09T09:37:03,42.805,6.029,0.049,-0.026,0.065,101.0,105.0,100.0,13.3,1505.3,325.4,-0.7,1.8,2470.393,13.33,0.055,117.9
2021-01-09T09:40:03,42.805,6.029,0.036,-0.017,0.06,100.0,105.0,100.0,13.4,1505.3,324.1,-0.7,1.8,2470.43,13.33,0.039,115.3
2021-01-09T09:43:03,42.805,6.029,0.029,0.008,0.062,103.0,105.0,100.0,13.3,1505.3,323.6,-0.7,1.8,2470.414,13.33,0.03,74.6
2021-01-09T09:46:03,42.805,6.029,0.03,0.006,0.037,102.0,105.0,100.0,13.4,1505.3,322.9,-0.7,1.8,2470.419,13.33,0.03,78.7
2021-01-09T09:49:03,42.805,6.029,0.059,-0.019,0.041,101.0,106.0,100.0,13.4,1505.3,327.4,-0.7,1.8,2470.44,13.33,0.061,107.8
2021-01-09T09:52:03,42.805,6.029,-0.001,-0.011,0.021,101.0,107.0,99.0,13.4,1505.3,325.1,-0.7,1.8,2470.426,13.33,0.011,185.2
2021-01-09T09:55:03,42.805,6.029,0.009,-0.01,0.003,100.0,106.0,99.0,13.3,1505.3,326.3,-0.7,1.8,2470.418,13.33,0.013,138.0
2021-01-09T09:58:03,42.805,6.029,-0.005,-0.025,0.006,102.0,104.0,99.0,13.4,1505.3,323.4,-0.7,1.8,2470.412,13.33,0.025,191.3
2021-01-09T10:04:03,42.805,6.029,-0.006,-0.001,0.021,101.0,104.0,100.0,13.3,1505.3,325.7,-0.7,1.8,2470.469,13.31,0.006,260.5
2021-01-09T10:07:03,42.805,6.029,0.01,-0.025,0.013,102.0,105.0,100.0,13.4,1505.3,323.8,-0.7,1.8,2470.45,13.32,0.026,158.2
2021-01-09T10:10:03,42.805,6.029,0.001,-0.021,-0.016,101.0,106.0,99.0,13.4,1505.3,325.1,-0.7,1.8,2470.428,13.32,0.021,177.3
2021-01-09T10:13:03,42.805,6.029,-0.001,-0.028,-0.006,99.0,109.0,100.0,13.4,1505.3,326.5,-0.7,1.8,2470.438,13.33,0.028,182.0